Regional Weather Roundup
Issued by NWS New Orleans/Baton Rouge, LA

Home | Current Version | Previous Version | Text Only | Print | Product List | Glossary Off
Versions: 1 2 3 4 5 6 7 8 9 10 11 12 13 14 15 16 17 18 19 20 21 22 23 24 25 26 27 28 29 30 31 32 33 34 35 36 37 38 39 40 41 42 43 44 45 46 47 48 49 50

063
ASUS44 KLIX 290101
RWRLIX
NEW ORLEANS REGIONAL WEATHER ROUNDUP
NATIONAL WEATHER SERVICE NEW ORLEANS LA
800 PM CDT MON JUL 28 2014

NOTE: "FAIR" INDICATES FEW OR NO CLOUDS BELOW 12,000 FEET WITH NO
      SIGNIFICANT WEATHER AND/OR OBSTRUCTIONS TO VISIBILITY.
      SKY/WX - SKY CONDITION AND SIGNIFICANT WEATHER.
      TMP - AIR TEMPERATURE.     DP    - DEWPOINT TEMPERATURE.
      RH  - RELATIVE HUMIDITY.   PRES  - PRESSURE.
      HI  - HEAT INDEX.          WCI   - WIND CHILL INDEX.

*  THESE STATIONS ARE NOT NWS OR FAA STATIONS AND ARE NOT UNDER
   NWS QUALITY CONTROL.

LAZ038-040-048-061>063-065>067-069-290200-
SOUTHEAST LOUISIANA

CITY           SKY/WX    TMP DP  RH WIND       PRES   REMARKS
N.O. AUDUBON     N/A     90  77  66 MISG        N/A  HX 102
N.O. INTL ARPT MOCLDY    87  75  67 W10       29.98R HX  96
N.O. LAKEFRONT PTCLDY    89  78  70 W10       29.98R HX 103
N.O. DOWNTOWN*   N/A     90  72  55 SW6       29.98S HX  96
SLIDELL        PTCLDY    86  76  71 CALM      29.96S HX  96
BATON ROUGE    CLOUDY    84  75  74 NW7       30.00R
BOOTHVILLE     MOCLDY    86  81  85 W12       29.99R HX 102
BELLE CHASSE   MOCLDY    85  76  74 W3        29.97R
BOGALUSA*        N/A     84  73  69 W7        29.99R
GALLIANO*      NOT AVBL
NEW ROADS*       N/A     77  71  81 W3        30.02R
GONZALES*        N/A     85  80  86 CALM      29.99S HX  98
HAMMOND*       MOCLDY    86  75  70 CALM      30.00R HX  95
HOUMA*         PTCLDY    84  76  76 CALM      29.99S HAZE
PORT FOURCHON* CLEAR     86  77  74 W14       30.01R HX  97

$$

MSZ070-080>082-290200-
SOUTHERN MISSISSIPPI

CITY           SKY/WX    TMP DP  RH WIND       PRES   REMARKS
MCCOMB         PTCLDY    81  73  76 NW6       30.00S
GULFPORT       PTCLDY    89  76  65 W5        29.96R HX 100
BILOXI         PTCLDY    87  77  70 VRB5      29.96R HX  99
PASCAGOULA     MOCLDY    84  77  79 CALM      29.95R
STENNIS ARPT*  PTCLDY   N/A N/A N/A CALM      29.97R

$$

COASTAL OBSERVATIONS
LAKE AND NEARSHORE STATIONS

STATION/POSITION TIME  TEMP    WIND        PRES    WAVE
                       AIR SEA DIR/SP/G            HT/PER
                 (UTC) (F)     (DEG/KT/KT) (MB)    (FT/S)
PASCAGOULA       0000   87     260/ 10/ 14 1013.8
WAVELAND YACHT   0000   87     270/  3/  5 1014.1
GRAND ISLE       0000   88 89  280/ 15/ 17 1015.9
SOUTHWEST PASS   0000   85 85  280/ 20/ 23 1015.8
NEW CANAL        0000   90 86  270/  6/  9 1015.4
SHELL BEACH      0000   88 84  260/  8/  9 1014.8

OFFSHORE STATIONS

STATION/POSITION TIME  TEMP    WIND        PRES    WAVE
                       AIR SEA DIR/SP/G            HT/PER
                 (UTC) (F)     (DEG/KT/KT) (MB)    (FT/S)

$$




USA.gov is the U.S. government's official web portal to all federal, state and local government web resources and services.